Torna al catalogo

ATLAS 5 CENTAUR DEB

AttivoHEO
NORAD 45475·DEBRIS·🇺🇸 United States

Lanciato Oct 17, 2018 da Cape Canaveral Space Force Station

Loading…

Prossimi Passaggi (prossime 24 ore)

TLE

AggiornatoSource: Space-Track

Epoca: Sep 13, 2026, 09:32 UTC

1 45475U 18079BX  26256.39732705 -.00000178  00000-0  00000-0 0  9994
2 45475  13.4469  18.2709 4741954 351.6787   2.5353  1.84723086 46807

Traccia ATLAS 5 CENTAUR DEB in tempo reale con AllMySat

Download on the App Store